Stations météo

Publicité
Paris-Montsouris, France (7156): Température de l'air & dewpoint: 11.06.2019 16:00:00 - 17.06.2019 16:00:00 (CEST)Paris-Montsouris, France (7156): Température de l'air 5cm: 11.06.2019 16:00:00 - 17.06.2019 16:00:00 (CEST)Paris-Montsouris, France (7156): Température de l'air -20cm & Température de l'air -100cm: 11.06.2019 16:00:00 - 17.06.2019 16:00:00 (CEST)Paris-Montsouris, France (7156): Vitesse du vent & gusts: 11.06.2019 16:00:00 - 17.06.2019 16:00:00 (CEST)Paris-Montsouris, France (7156): Direction du vent: 11.06.2019 16:00:00 - 17.06.2019 16:00:00 (CEST)Paris-Montsouris, France (7156): reduced air pressure: 11.06.2019 16:00:00 - 17.06.2019 16:00:00 (CEST)Paris-Montsouris, France (7156): visibility: 11.06.2019 16:00:00 - 17.06.2019 16:00:00 (CEST)Paris-Montsouris, France (7156): Ensoleillement: 11.06.2019 16:00:00 - 17.06.2019 16:00:00 (CEST)Paris-Montsouris, France (7156): Quantités de précipitations: 11.06.2019 16:00:00 - 17.06.2019 16:00:00 (CEST)
Date & Time tt [°C] td [°C] tt 5cm [°C] tt -20cm [°C] tt -100cm [°C] ff [km/h] ff [knt] fx [km/h] fx [knt] dd ppp [hPa] vv [km] sd [min] rr [mm]
17.06.2019 16:00:00 25,7 11,8 26,7 19,1 15,5 7 4 22 12 SE 1017,5 20 25 0,0
17.06.2019 15:00:00 26,1 12,2 30,2 18,8 15,5 6 3 22 12 SSE 1017,9 20 54 0,0
17.06.2019 14:00:00 25,9 14,4 26,1 18,5 15,5 9 5 19 11 S 1018,4 20 45 0,0
17.06.2019 13:00:00 24,1 13,9 24,9 18,3 15,5 4 2 17 9 SW 1018,8 18 33 0,0
17.06.2019 12:00:00 23,2 12,5 25,6 18,1 15,5 5 3 19 10 SSW 1019,3 20 39 0,0
17.06.2019 11:00:00 23,6 12,3 30,2 17,9 15,5 9 5 19 10 S 1019,7 20 60 0,0
17.06.2019 10:00:00 22,6 13,4 28,3 17,9 15,5 8 4 18 10 S 1020,1 20 60 0,0
17.06.2019 09:00:00 21,0 13,4 22,4 17,9 15,5 6 3 13 7 S 1020,3 20 60 0,0
17.06.2019 08:00:00 16,2 12,4 11,9 18,1 15,5 0 0 5 3 N 1020,6 20 60 0,0
17.06.2019 07:00:00 13,8 11,7 9,8 18,2 15,5 4 2 10 5 S 1020,5 20 24 0,0
17.06.2019 06:00:00 13,7 11,7 9,8 18,4 15,5 6 3 10 6 S 1020,3 20 0 0,0
17.06.2019 05:00:00 14,3 12,0 10,6 18,5 15,5 5 3 7 4 S 1020,0 20 0 0,0
17.06.2019 04:00:00 14,8 11,9 10,9 18,7 15,5 3 2 5 3 SSE 1020,4 20 0 0,0
17.06.2019 03:00:00 15,2 12,0 11,0 18,8 15,5 4 2 9 5 SSE 1020,7 20 0 0,0
17.06.2019 02:00:00 15,7 11,9 11,6 19,0 15,5 5 3 12 6 SSW 1020,8 20 0 0,0
17.06.2019 01:00:00 16,3 11,7 12,2 19,1 15,5 7 4 12 6 SW 1021,0 20 0 0,0
17.06.2019 00:00:00 17,0 11,5 12,3 19,2 15,5 8 4 11 6 WSW 1021,0 20 0 0,0
16.06.2019 23:00:00 17,5 11,3 13,0 19,3 15,5 6 3 16 9 SW 1021,1 20 0 0,0
16.06.2019 22:00:00 18,9 10,7 14,7 19,4 15,5 7 4 17 9 SW 1020,8 20 27 0,0
16.06.2019 21:00:00 21,1 11,4 18,6 19,3 15,4 7 4 24 13 SSW 1020,6 20 56 0,0
16.06.2019 20:00:00 22,3 11,7 24,7 19,3 15,5 15 8 26 14 SW 1020,7 20 60 0,0
16.06.2019 19:00:00 22,9 11,3 23,0 19,1 15,5 8 4 31 17 SSW 1020,7 20 35 0,0
16.06.2019 18:00:00 22,7 11,7 22,6 19,0 15,5 12 7 31 17 WSW 1020,8 20 31 0,0
16.06.2019 17:00:00 21,6 11,0 23,7 18,8 15,4 10 5 31 17 WSW 1020,9 20 20 0,0
16.06.2019 16:00:00 22,3 11,7 25,2 18,6 15,4 11 6 38 20 WSW 1021,3 20 45 0,0
16.06.2019 15:00:00 22,2 12,7 23,4 18,4 15,4 15 8 34 19 WSW 1021,4 20 38 0,0
16.06.2019 14:00:00 20,6 13,1 21,3 18,3 15,4 11 6 28 15 SW 1021,6 20 11 0,0
16.06.2019 13:00:00 19,6 11,9 19,2 18,2 15,4 13 7 28 15 SW 1021,8 20 0 0,0
16.06.2019 12:00:00 19,4 12,6 20,6 18,1 15,4 10 5 25 14 SW 1021,6 20 5 0,0
16.06.2019 11:00:00 19,0 11,3 22,3 18,0 15,4 11 6 26 14 SW 1021,7 20 47 0,0
16.06.2019 10:00:00 17,2 12,7 17,9 18,0 15,4 10 6 27 14 WSW 1021,8 20 11 0,0
16.06.2019 09:00:00 17,1 12,4 17,1 18,1 15,4 9 5 23 12 SW 1021,6 20 50 0,0
16.06.2019 08:00:00 15,0 11,6 14,5 18,2 15,4 16 8 29 16 SW 1021,2 20 37 0,0
16.06.2019 07:00:00 14,7 11,5 14,0 18,3 15,4 10 5 29 16 SW 1020,5 20 5 0,0
16.06.2019 06:00:00 14,3 11,3 13,5 18,4 15,4 10 5 23 12 SW 1020,5 20 0 0,0
16.06.2019 05:00:00 14,2 11,2 13,0 18,5 15,4 10 5 27 14 SW 1020,2 20 0 0,0
16.06.2019 04:00:00 14,2 11,2 12,6 18,7 15,4 9 5 27 14 SW 1020,0 20 0 0,0
16.06.2019 03:00:00 14,6 11,0 12,1 18,8 15,4 9 5 35 19 SW 1019,7 20 0 0,0
16.06.2019 02:00:00 15,3 10,7 13,1 19,0 15,4 14 8 31 17 WSW 1019,6 20 0 0,0
16.06.2019 01:00:00 16,1 10,2 13,3 19,1 15,4 8 5 29 16 SW 1019,4 20 0 0,0
16.06.2019 00:00:00 17,1 10,0 14,4 19,2 15,4 6 4 24 13 WSW 1019,1 20 0 0,0
15.06.2019 23:00:00 17,3 9,5 14,5 19,3 15,4 8 4 31 17 SW 1018,8 20 0 0,0
15.06.2019 22:00:00 18,2 9,8 15,3 19,4 15,4 9 5 27 15 WSW 1018,1 20 27 0,0
15.06.2019 21:00:00 19,3 8,9 17,7 19,5 15,4 12 6 36 20 WSW 1017,5 20 29 0,0
15.06.2019 20:00:00 20,6 9,2 20,0 19,5 15,4 15 8 35 19 SW 1017,2 20 26 0,0
15.06.2019 19:00:00 20,2 9,4 20,4 19,4 15,4 13 7 37 20 SW 1016,9 20 19 0,0
15.06.2019 18:00:00 20,6 9,2 20,5 19,3 15,3 17 9 40 21 WSW 1016,9 20 13 0,0
15.06.2019 17:00:00 21,6 9,2 22,2 19,1 15,3 18 10 39 21 WSW 1016,7 20 35 0,0
15.06.2019 16:00:00 21,0 8,9 22,3 18,9 15,3 16 9 49 27 WSW 1016,8 20 21 0,0
15.06.2019 15:00:00 20,9 8,8 22,3 18,6 15,4 16 9 40 22 SW 1016,9 20 37 0,0
15.06.2019 14:00:00 21,5 10,3 28,1 18,3 15,3 19 10 46 25 SW 1016,9 20 60 0,0
15.06.2019 13:00:00 21,0 9,6 26,5 18,1 15,3 19 11 39 21 SW 1016,5 20 60 0,0
15.06.2019 12:00:00 20,2 6,9 26,5 17,9 15,3 16 9 34 18 SW 1016,2 20 60 0,0
15.06.2019 11:00:00 19,9 10,9 25,2 17,8 15,3 15 8 27 15 SW 1015,9 20 60 0,0
15.06.2019 10:00:00 18,7 10,5 21,5 17,8 15,3 11 6 27 15 WSW 1015,6 20 55 0,0
15.06.2019 09:00:00 16,4 12,0 14,7 17,9 15,4 6 4 19 11 W 1015,0 20 56 0,0
15.06.2019 08:00:00 14,8 14,0 12,5 18,0 15,3 5 3 14 8 SSW 1014,4 20 19 0,0
15.06.2019 07:00:00 14,0 13,4 10,6 18,1 15,3 5 3 18 10 SSW 1013,8 17 26 0,0
15.06.2019 06:00:00 14,1 13,3 10,9 18,2 15,3 8 4 16 9 SW 1013,7 11 0 0,0
15.06.2019 05:00:00 15,1 14,1 12,6 18,3 15,3 9 5 19 10 SW 1013,2 12 0 0,0
15.06.2019 04:00:00 15,8 14,8 14,7 18,4 15,4 7 4 18 10 SSW 1012,7 9 0 0,2
15.06.2019 03:00:00 16,1 15,1 14,8 18,5 15,3 9 5 15 8 SW 1012,5 14 0 0,6
15.06.2019 02:00:00 16,4 14,8 15,0 18,6 15,4 5 3 34 19 SW 1012,3 6 0 7,5
15.06.2019 01:00:00 19,5 12,5 17,2 18,7 15,3 8 5 17 9 N 1011,8 20 0 0,0
15.06.2019 00:00:00 20,2 12,2 19,0 18,7 15,3 8 4 23 13 NNW 1011,4 20 0 0,0
14.06.2019 23:00:00 20,8 12,2 19,1 18,8 15,3 9 5 22 12 NNW 1011,6 20 0 0,0
14.06.2019 22:00:00 20,9 11,5 19,1 18,8 15,3 6 3 13 7 W 1011,6 20 0 0,0
14.06.2019 21:00:00 21,6 12,4 20,7 18,7 15,4 6 4 14 8 W 1011,5 20 3 0,0
14.06.2019 20:00:00 22,6 12,2 23,0 18,6 15,3 4 2 17 9 S 1011,3 20 19 0,0
14.06.2019 19:00:00 23,3 12,6 23,8 18,5 15,3 8 4 18 10 SSW 1011,4 20 27 0,0
14.06.2019 18:00:00 23,1 13,3 24,3 18,3 15,3 5 3 20 11 SW 1011,5 20 34 0,0
14.06.2019 17:00:00 23,0 12,3 25,9 18,0 15,3 5 3 27 15 SSE 1011,9 20 28 0,0
14.06.2019 16:00:00 22,4 12,9 25,7 17,7 15,3 7 4 28 15 S 1012,6 20 26 0,0
14.06.2019 15:00:00 23,6 13,7 24,9 17,5 15,3 12 7 30 16 S 1013,1 20 50 0,0
14.06.2019 14:00:00 22,1 13,2 24,1 17,2 15,3 10 5 26 14 S 1013,9 20 16 0,0
14.06.2019 13:00:00 21,1 13,0 23,0 17,0 15,3 9 5 29 16 S 1014,4 20 15 0,0
14.06.2019 12:00:00 20,4 12,1 24,4 16,8 15,3 9 5 24 13 S 1014,7 20 39 0,0
14.06.2019 11:00:00 19,6 10,6 26,6 16,6 15,3 9 5 20 11 SW 1014,2 20 60 0,0
14.06.2019 10:00:00 18,4 10,5 23,6 16,6 15,3 6 4 15 8 WSW 1014,0 20 60 0,0
14.06.2019 09:00:00 16,2 10,5 18,5 16,6 15,3 8 4 22 12 WNW 1013,6 20 54 0,0
14.06.2019 08:00:00 14,7 12,4 12,7 16,7 15,4 8 4 16 9 SW 1013,1 20 14 0,0
14.06.2019 07:00:00 13,5 11,7 12,0 16,7 15,3 4 2 10 6 SSE 1012,6 20 0 0,0
14.06.2019 06:00:00 13,8 11,7 12,4 16,8 15,4 5 3 20 11 S 1013,1 20 0 0,0
14.06.2019 05:00:00 13,9 11,9 12,8 16,9 15,4 6 4 21 11 S 1012,8 20 0 0,0
14.06.2019 04:00:00 14,0 12,2 12,2 17,0 15,4 9 5 15 8 SSW 1012,8 20 0 0,0
14.06.2019 03:00:00 13,8 12,2 11,3 17,1 15,3 6 3 10 6 SW 1012,5 20 0 0,0
14.06.2019 02:00:00 13,8 12,2 11,0 17,2 15,3 5 3 10 5 SSW 1012,4 20 0 0,0
14.06.2019 01:00:00 14,1 12,0 10,6 17,3 15,4 6 3 10 5 SW 1012,7 20 0 0,0
14.06.2019 00:00:00 14,1 11,8 10,5 17,4 15,4 7 4 13 7 SSW 1012,6 20 0 0,0
13.06.2019 23:00:00 14,7 12,0 11,3 17,4 15,4 8 5 13 7 SSW 1012,6 20 0 0,0
13.06.2019 22:00:00 16,0 12,0 12,5 17,4 15,4 8 4 27 15 SSW 1012,1 20 25 0,0
13.06.2019 21:00:00 18,5 13,4 16,5 17,4 15,4 10 5 26 14 SW 1011,7 20 51 0,0
13.06.2019 20:00:00 19,2 13,8 18,9 17,3 15,4 13 7 33 18 SSW 1011,3 20 50 0,0
13.06.2019 19:00:00 18,3 15,2 15,2 17,2 15,4 12 7 30 16 SW 1011,1 20 22 3,9
13.06.2019 18:00:00 18,6 12,1 18,7 17,0 15,4 12 7 34 18 SW 1011,4 20 20 0,0
13.06.2019 17:00:00 18,5 13,1 16,9 16,9 15,4 12 7 24 13 SW 1011,2 20 20 0,2
13.06.2019 16:00:00 16,0 12,7 14,4 16,8 15,3 12 6 47 26 SW 1011,9 14 0 1,6
13.06.2019 15:00:00 18,5 9,8 19,9 16,6 15,3 20 11 43 23 SW 1011,8 20 12 0,0
13.06.2019 14:00:00 17,7 9,8 19,2 16,5 15,4 17 9 38 21 SW 1012,2 20 6 0,0
13.06.2019 13:00:00 16,5 11,0 17,9 16,4 15,4 16 8 40 21 SW 1012,3 20 0 0,0
13.06.2019 12:00:00 16,2 10,9 17,3 16,3 15,4 11 6 44 24 SW 1012,2 20 0 0,0
13.06.2019 11:00:00 14,7 10,5 15,2 16,3 15,4 17 9 40 22 S 1012,5 20 4 0,0
13.06.2019 10:00:00 14,5 11,3 13,4 16,2 15,3 12 6 28 15 SSW 1012,2 20 2 0,0
13.06.2019 09:00:00 12,4 10,1 12,2 16,3 15,3 13 7 28 15 S 1012,3 20 0 0,0
13.06.2019 08:00:00 11,6 9,8 10,1 16,4 15,4 10 6 32 18 SSW 1012,2 20 29 0,0
13.06.2019 07:00:00 10,4 9,2 8,5 16,5 15,4 14 8 32 18 SSW 1012,1 20 19 0,0
13.06.2019 06:00:00 10,3 9,2 8,3 16,6 15,4 11 6 25 14 SSW 1012,0 20 0 0,0
13.06.2019 05:00:00 10,6 9,7 7,5 16,8 15,4 10 6 23 12 S 1011,8 20 0 0,0
13.06.2019 04:00:00 10,5 9,4 6,7 16,9 15,4 11 6 24 13 SSW 1011,8 20 0 0,0
13.06.2019 03:00:00 10,7 9,3 7,8 17,0 15,4 10 5 20 11 SSW 1011,6 20 0 0,0
13.06.2019 02:00:00 11,3 9,6 8,6 17,2 15,4 9 5 26 14 SSW 1011,6 20 0 0,0
13.06.2019 01:00:00 11,9 9,8 9,4 17,3 15,3 10 6 30 16 SW 1011,3 20 0 0,0
13.06.2019 00:00:00 12,7 10,2 10,4 17,4 15,4 9 5 26 14 SSW 1011,0 20 0 0,0
12.06.2019 23:00:00 13,0 10,0 10,4 17,5 15,4 11 6 34 19 SW 1010,7 20 0 0,0
12.06.2019 22:00:00 13,5 11,4 11,2 17,5 15,4 12 7 30 16 SSW 1010,1 20 0 0,0
12.06.2019 21:00:00 15,4 11,8 13,3 17,5 15,3 12 6 34 19 SW 1009,4 11 17 0,6
12.06.2019 20:00:00 16,7 11,4 15,4 17,5 15,4 12 7 31 17 SSW 1009,1 20 38 0,0
12.06.2019 19:00:00 15,4 11,0 15,6 17,4 15,4 13 7 33 18 SSW 1009,0 20 16 0,0
12.06.2019 18:00:00 15,3 11,7 12,6 17,3 15,3 6 4 36 20 S 1008,7 17 9 0,2
12.06.2019 17:00:00 16,8 10,4 15,1 17,1 15,3 12 7 - - SSW 1009,1 20 32 0,0
12.06.2019 16:00:00 15,0 11,0 12,9 17,0 15,4 13 7 32 18 S 1009,2 14 19 0,2
12.06.2019 15:00:00 13,5 11,0 12,3 16,8 15,3 16 9 61 33 S 1009,6 14 21 1,0
12.06.2019 14:00:00 15,7 12,6 13,6 16,7 15,4 14 7 29 16 SSE 1009,5 - 8 0,8
12.06.2019 13:00:00 15,7 9,6 16,8 16,5 15,4 11 6 29 16 S 1009,5 - 4 0,0
12.06.2019 12:00:00 15,2 9,1 17,5 16,4 15,4 13 7 32 18 S 1009,9 - 20 0,0
12.06.2019 11:00:00 13,3 9,7 14,7 16,3 15,3 10 6 27 14 S 1010,0 - 20 0,0
12.06.2019 10:00:00 11,1 9,5 11,8 16,3 15,4 12 7 25 14 S 1010,4 - 1 0,0
12.06.2019 09:00:00 10,5 9,7 10,6 16,4 15,4 11 6 21 11 S 1010,3 - 0 0,0
12.06.2019 08:00:00 10,1 9,6 10,2 16,5 15,4 6 3 18 10 S 1010,1 - 0 0,0
12.06.2019 07:00:00 10,4 9,9 10,1 16,6 15,3 6 4 17 9 SSE 1010,0 - 0 0,0
12.06.2019 06:00:00 10,3 9,8 6,2 16,8 15,3 9 5 19 10 SSE 1009,8 - 0 0,0
12.06.2019 05:00:00 10,0 9,5 5,7 16,9 15,3 8 4 14 8 S 1009,6 - 0 0,0
12.06.2019 04:00:00 10,0 9,4 5,8 17,1 15,3 5 3 12 6 S 1009,7 - 0 0,0
12.06.2019 03:00:00 10,2 9,4 6,1 17,3 15,4 6 3 11 6 S 1010,4 - 0 0,0
12.06.2019 02:00:00 11,0 10,4 6,9 17,4 15,3 4 2 11 6 SSE 1010,6 - 0 0,0
12.06.2019 01:00:00 11,5 10,7 8,3 17,5 15,3 4 2 16 9 SE 1011,2 - 0 0,0
12.06.2019 00:00:00 11,3 10,5 7,5 17,7 15,4 6 3 11 6 SE 1011,1 - 0 0,0
11.06.2019 23:00:00 11,4 10,3 8,1 17,8 15,4 6 3 11 6 E 1011,3 - 0 0,0
11.06.2019 22:00:00 11,9 10,8 9,2 17,9 15,4 6 3 8 5 ESE 1011,6 - 0 0,0
11.06.2019 21:00:00 13,1 11,8 12,3 18,0 15,3 5 3 11 6 ENE 1011,5 - 0 1,6
11.06.2019 20:00:00 13,4 11,1 12,2 18,0 15,3 6 3 21 11 SW 1011,7 - 0 0,0
11.06.2019 19:00:00 13,6 10,9 12,4 18,0 15,4 10 5 30 16 SW 1011,6 - 0 1,0
11.06.2019 18:00:00 16,3 9,9 14,2 17,8 15,3 9 5 34 18 SE 1011,3 - 8 0,0
11.06.2019 17:00:00 16,8 9,2 14,7 17,7 15,3 12 7 27 15 SSE 1011,1 - 10 0,2
11.06.2019 16:00:00 18,6 8,5 17,1 17,5 15,3 8 4 25 13 SW 1011,1 - 11 0,0

tt = Température de l'air
td = dewpoint
tt 5cm = Température de l'air 5cm
tt -20cm = Température de l'air -20cm
tt -100cm = Température de l'air -100cm
ff = Vitesse du vent
fx = gusts
dd = Direction du vent
ppp = reduced air pressure
vv = visibility
sd = Ensoleillement
rr = Quantités de précipitations

stations d'obs. à proximité